Погода в Морле

Франция     48°34′38″N   3°49′36″W
темп.,
°C
ветер,
м/с
пор.,
м/с
влажн.,
%
обл.,
%
осадки,
мм/ч
давл.,
гПа
погр.,
м
16 мая, пн
пн1623:00+13юз31091100 0.1 1011332
02:00+13ююз41295100 0.1 1012446
05:00+14ююз6138596 0.0 1012674
08:00+14ююз614815 0.0 10131025
11:00+17ююз8147769 0.3 10151294
14:00+20юз61353100 0.3 10161723
17:00+18юз5957100 0.0 10161327
20:00+17ююз4766100 0.0 1017835
17 мая, вт
вт1723:00+12ю398570 0.0 1018233
02:00+12ююв4108555 0.0 1018237
05:00+12ююв38815 0.0 1017149
08:00+13юв412745 0.0 1017303
11:00+20ююв6125781 0.0 10161033
14:00+23ю713515 0.0 10141726
17:00+17ююз5137493 0.1 1016951
20:00+16зюз698523 0.3 1016851
18 мая, ср
ср1823:00+11ююз26968 0.0 1019145
02:00+10ююз269818 0.0 1020141
05:00+9ю249712 0.0 102079
08:00+11ююв3794100 0.0 1021201
11:00+17ю4763100 0.0 1020674
14:00+18ю3761100 0.0 1019798
17:00+21ю4753100 0.0 10171165
20:00+17з2574100 0.1 1017293
19 мая, чт
чт1923:00+12з118938 0.0 101811
02:00+11зсз2396100 0.0 101857
05:00+10з1198100 0.0 101814
08:00+12з1293100 0.0 101989
11:00+15з2459100 0.0 1020699
14:00+19зсз24463 0.0 10211490
17:00+20сз334916 0.0 10201315
20:00+16ссв336812 0.0 1021392
20 мая, пт
пт2023:00+11всв2290100 0.0 102116
02:00+11юв2283100 0.0 102041
05:00+11ююв1188100 0.0 101929
08:00+13ююз1378100 0.0 1019123
11:00+16зюз3666100 0.0 1019683
14:00+19зюз58512 0.0 10191356
17:00+19зюз57500 0.0 10201199
20:00+16зюз47681 0.0 1020751